Temperature
14 14 14 15 15 16 17 20 22 23 24 25 25 25 25 25 25 23 21 20 20 20 20 19 19 18 17 17 17 17 17 17 17 16 16 16 16 16 15 15 15 15 14 14 14 14 14 14 14
13 14 14 15 15 16 18 20 21 23 24 24 24 24 24 24 24 23 21 20 20 20 19 19 18 18 17 17 17 16 16 16 16 16 16 16 15 15 15 15 15 14 14 14 14 14 14 14 14
13 13 14 15 16 17 19 22 22 23 23 24 24 24 24 24 23 22 21 20 19 19 19 18 18 17 17 17 16 16 16 16 16 16 16 15 15 15 15 14 14 14 14 14 14 13 14 14 14
12 13 14 15 16 18 20 21 22 23 23 23 23 23 23 23 22 21 20 20 19 18 18 18 17 17 17 17 16 16 16 16 16 16 15 15 15 15 14 14 14 14 14 13 13 13 13 13 14
12 14 14 15 16 18 20 21 22 22 22 22 22 22 22 22 21 21 20 19 19 18 17 17 17 17 16 16 16 16 16 16 16 15 15 15 14 14 14 14 14 13 13 13 13 13 13 13 13
13 14 14 15 17 19 20 21 21 21 21 22 21 21 20 21 21 20 19 19 18 18 17 17 16 16 16 16 16 16 16 15 15 15 15 14 14 14 14 13 13 13 13 13 13 13 13 13 13
12 13 14 15 16 17 19 20 20 19 20 20 21 20 20 20 20 19 19 18 17 17 16 16 16 16 16 16 16 16 15 15 15 15 15 14 14 14 13 13 13 13 13 13 13 13 13 13 13
12 12 13 14 16 17 18 18 18 18 18 19 19 19 19 19 18 18 18 17 17 16 16 16 16 16 16 15 15 15 15 15 15 15 14 14 14 13 13 13 13 13 13 13 12 12 12 12 12
11 11 12 14 15 16 17 17 17 17 17 18 18 18 18 18 17 17 17 17 16 16 16 16 15 15 15 15 15 15 15 15 14 14 14 14 13 13 13 12 12 12 12 12 12 12 12 12 12
11 10 12 14 15 15 15 15 15 16 16 17 17 17 17 17 16 16 16 16 16 16 15 15 15 15 15 15 15 15 14 14 14 14 14 13 13 12 12 12 12 12 12 12 12 12 11 12 12
11 11 13 14 14 14 14 14 14 14 14 15 16 15 15 15 15 15 15 16 15 15 15 15 15 15 15 15 14 14 14 14 14 14 13 13 12 12 12 12 12 12 12 12 11 11 11 11 11
11 11 12 13 13 13 13 13 13 13 14 15 15 15 15 15 15 15 15 15 15 15 15 15 15 15 14 15 14 14 14 14 13 13 13 13 12 12 12 12 12 12 11 11 11 11 11 10 11
10 11 12 12 12 12 12 12 13 13 13 14 14 14 14 14 15 15 15 15 15 14 14 14 14 14 14 14 14 14 14 14 14 13 13 12 12 12 12 11 11 11 11 11 11 10 10 10 10
10 10 11 11 11 12 12 12 12 13 13 14 14 14 14 14 14 14 14 14 14 14 14 14 14 14 14 14 14 14 13 13 13 13 13 12 12 12 12 11 11 11 11 11 10 10 10 10 10
9 9 10 11 11 12 12 11 12 13 13 13 13 13 13 14 14 14 14 14 14 14 14 14 14 14 14 14 14 14 13 13 13 13 13 12 12 12 12 11 11 11 11 11 10 10 10 10 10
9 9 9 11 12 12 11 10 12 13 13 13 13 13 13 14 14 14 14 14 14 14 14 14 14 14 14 13 13 13 13 13 13 13 13 12 12 12 12 11 11 11 11 10 10 10 10 10 10
8 8 9 10 12 12 11 10 12 13 13 13 13 13 13 13 14 14 14 14 14 14 14 13 14 13 13 13 13 13 13 13 13 13 13 12 12 12 12 11 11 11 11 11 10 10 10 10 10
8 8 9 9 11 11 10 10 12 13 13 12 12 12 13 13 14 14 14 14 14 13 13 13 13 13 13 13 13 13 13 13 13 13 13 12 12 12 12 11 11 11 11 11 11 10 10 10 10
8 8 8 9 11 10 10 10 11 12 12 12 12 12 13 13 14 14 14 14 13 13 13 13 13 13 13 13 13 12 12 12 12 12 12 12 12 12 12 11 11 11 11 11 11 10 10 10 10
8 8 8 9 10 10 10 10 11 12 12 12 12 12 12 12 13 14 13 13 13 13 13 12 12 12 12 12 12 13 13 13 13 12 12 12 12 12 12 11 11 11 11 10 10 10 10 10 10
8 8 8 9 9 10 9 9 11 12 12 12 12 12 12 12 12 13 13 12 12 12 12 12 12 12 12 12 12 12 12 12 12 12 12 12 12 12 12 12 11 11 11 11 11 10 10 10 10
7 9 9 9 8 8 9 8 10 11 12 12 12 12 12 12 12 12 12 12 12 12 12 12 12 12 12 12 12 12 12 12 12 12 12 12 12 12 12 12 11 11 11 11 11 11 11 10 10
8 9 8 8 7 7 8 8 9 11 11 11 11 11 11 11 12 11 11 11 11 11 11 11 11 11 11 12 12 12 12 12 12 12 12 12 12 12 12 12 12 11 11 11 11 11 10 10 11
9 8 8 8 7 7 8 8 9 10 10 10 11 11 11 11 11 11 11 11 11 11 11 11 11 11 11 11 12 12 12 12 12 12 12 12 12 12 12 12 12 12 11 11 11 11 11 10 10
8 6 5 6 6 7 10 9 9 11 11 11 10 11 10 10 11 11 10 10 10 10 10 10 11 11 11 11 12 12 12 12 12 12 12 12 12 12 12 12 12 12 12 11 11 11 11 10 10
7 6 5 5 6 7 9 9 9 11 11 11 11 10 10 10 10 10 10 10 10 10 10 10 10 11 11 11 11 12 12 12 12 12 12 12 12 12 12 12 12 12 12 11 11 11 11 10 10
6 6 7 6 6 6 8 9 10 11 10 10 10 10 10 9 10 10 9 9 9 9 10 10 10 10 10 11 11 12 12 12 12 12 12 12 12 12 12 12 12 11 11 11 11 11 11 11 10
7 6 6 5 5 6 7 8 9 9 9 9 9 9 9 9 9 9 9 9 9 9 9 9 10 10 10 10 11 11 12 12 12 12 12 12 12 11 12 11 12 11 11 11 11 11 11 10 10
6 6 6 5 6 5 6 7 9 9 9 9 9 9 9 9 9 9 9 9 9 9 9 9 9 9 10 10 10 11 11 11 12 12 12 12 11 11 12 12 12 11 11 11 11 11 11 10 10
6 6 5 4 4 5 5 6 9 9 9 9 9 9 9 8 8 8 8 8 8 8 8 8 9 9 9 10 10 10 11 11 11 11 12 11 11 11 11 11 11 11 11 11 11 11 11 11 10
Wind_Speed
11 10 7 4 5 8 15 13 12 10 9 6 4 4 7 7 3 2 5 5 11 14 18 23 22 22 22 22 21 21 21 21 21 20 19 19 19 18 18 17 17 17 17 17 17 17 17 17 16
10 8 5 4 7 13 13 14 16 12 8 5 4 5 7 6 2 5 6 8 11 13 16 21 22 21 21 21 22 22 21 21 20 20 19 19 19 18 18 17 17 17 17 17 17 17 17 17 16
11 9 5 5 10 16 12 6 9 9 7 6 5 5 5 4 2 2 7 10 10 11 13 19 23 22 22 21 22 22 21 21 21 20 20 19 19 19 18 17 17 17 17 17 17 17 16 16 15
5 4 5 11 21 20 16 12 9 9 7 5 5 5 3 4 2 4 7 8 9 10 11 18 24 23 22 22 22 22 22 21 21 20 20 19 19 19 18 18 17 17 17 17 17 16 16 15 14
4 5 10 16 24 20 16 13 13 11 9 8 6 7 5 3 3 4 5 6 8 9 10 16 24 24 23 22 22 21 22 21 21 21 20 20 19 19 18 18 17 18 18 17 16 16 15 15 13
5 5 11 19 22 18 15 12 12 13 12 9 7 9 7 3 1 3 4 5 6 8 10 14 21 23 23 22 22 21 22 22 21 21 20 20 19 19 18 18 18 18 17 17 16 15 15 14 12
6 7 15 19 19 17 14 10 11 11 12 9 6 8 7 4 1 2 2 4 5 8 9 10 14 19 22 22 22 22 22 21 21 21 20 20 19 19 18 18 17 17 17 16 15 14 14 13 11
5 6 14 17 18 17 10 9 10 11 11 8 6 7 6 3 2 0 1 2 5 6 8 10 11 14 15 17 21 22 21 21 21 20 20 20 19 18 18 17 17 17 17 16 15 14 13 12 11
6 9 15 16 14 13 10 11 11 10 11 11 8 9 5 2 2 1 2 3 5 6 8 10 11 11 13 14 18 20 20 20 20 19 21 19 16 16 16 16 16 17 17 16 15 14 13 11 9
7 12 18 13 12 13 13 13 13 9 14 13 10 7 4 2 3 5 6 7 8 8 8 9 11 11 12 13 14 14 15 17 17 16 18 16 15 15 15 17 17 16 16 16 15 14 13 10 8
9 14 15 16 15 15 15 15 13 13 15 14 11 8 6 5 5 7 8 9 9 9 9 9 9 11 11 9 10 9 10 13 15 17 17 15 13 13 14 13 13 14 14 12 13 12 10 9 8
11 16 17 16 15 15 15 14 14 16 17 15 13 10 9 9 9 10 10 9 8 9 9 9 9 10 11 10 9 9 8 9 10 14 17 12 8 9 10 8 10 11 10 9 10 8 8 8 9
14 15 17 16 15 16 17 17 17 18 18 16 14 12 12 12 11 10 10 9 9 10 10 9 9 9 10 10 9 10 9 9 12 13 15 14 9 9 9 8 9 10 10 9 7 6 6 5 6
11 13 17 17 16 15 17 17 16 17 15 15 13 12 13 13 12 11 10 10 11 11 11 9 10 9 10 9 9 9 8 9 11 11 14 15 12 9 9 8 7 8 9 9 7 6 5 4 3
12 15 16 16 15 12 11 16 16 15 12 13 12 12 13 13 12 11 11 11 11 10 10 10 10 10 10 10 10 9 9 9 9 11 14 15 14 12 9 8 7 7 10 10 7 6 5 4 3
10 10 10 10 10 8 8 16 13 11 12 13 11 12 12 13 13 11 10 9 10 10 10 10 10 11 10 10 9 8 9 9 8 11 13 15 15 14 10 8 7 9 9 7 5 4 4 4 4
6 7 12 11 8 7 10 15 13 11 12 13 12 12 12 12 11 10 9 9 9 10 11 10 10 11 11 9 8 8 9 9 8 10 11 13 15 15 10 8 8 10 7 5 6 4 4 4 4
9 10 12 12 8 10 13 16 15 10 11 11 10 10 11 12 10 9 8 9 8 9 10 10 10 10 10 8 7 7 8 8 7 8 11 14 14 15 11 8 9 9 7 6 6 5 4 4 4
12 13 15 14 12 11 13 16 16 12 10 9 9 10 11 11 10 8 7 7 7 8 9 10 11 11 10 8 9 9 9 8 7 7 12 14 14 14 11 9 9 9 8 8 8 6 6 4 4
12 13 14 12 10 10 13 17 15 12 10 9 9 9 10 9 8 6 5 6 8 8 10 10 12 12 11 9 9 7 8 8 7 7 10 14 14 14 12 11 9 9 8 9 8 6 5 4 5
12 11 11 13 13 9 11 11 10 9 9 8 7 7 6 7 6 5 5 5 6 7 9 10 10 12 12 10 7 7 6 6 7 8 9 11 14 14 12 12 10 9 9 9 9 8 8 6 5
11 9 12 13 11 6 5 7 9 8 8 6 4 4 4 5 4 3 3 5 6 7 6 8 9 11 12 11 10 11 10 9 8 9 9 11 13 13 13 13 12 10 8 9 9 8 6 7 6
10 11 12 13 12 10 8 6 6 5 5 2 2 3 4 4 3 3 4 3 4 6 5 5 7 9 11 12 12 12 10 8 7 9 11 12 12 13 14 13 12 11 9 10 10 9 8 7 6
8 8 11 10 7 6 7 5 4 2 2 1 2 2 4 3 2 2 2 1 2 3 4 5 6 9 10 11 12 12 12 11 12 11 11 12 10 11 14 13 12 11 10 10 10 9 10 8 7
4 4 4 2 3 5 4 4 4 1 1 1 2 2 2 3 1 1 1 1 2 2 3 5 6 7 10 11 12 12 12 13 14 13 12 12 11 10 14 13 12 11 10 10 10 10 10 10 9
5 4 3 3 3 4 4 4 2 1 2 3 3 4 4 5 3 2 1 2 2 2 2 4 6 6 8 10 12 12 12 10 11 12 11 13 12 12 13 14 13 12 12 12 10 9 9 9 9
3 4 4 5 6 5 5 4 4 1 3 4 4 4 4 5 4 3 2 2 2 2 3 4 5 6 8 8 9 11 12 11 11 11 10 11 11 12 14 14 14 13 13 12 11 9 10 9 9
6 4 3 3 3 4 5 5 3 1 3 4 4 4 4 4 4 4 3 2 2 1 2 4 4 5 6 7 7 8 10 12 11 10 11 11 13 13 15 15 15 14 13 13 12 10 9 10 9
4 4 4 4 4 4 4 3 2 3 4 4 4 4 5 6 5 5 4 4 3 2 2 4 4 3 4 5 6 6 7 10 11 10 11 12 11 13 15 16 15 15 14 14 13 12 12 12 10
6 6 4 4 5 4 5 5 2 2 3 5 5 4 5 5 5 5 5 4 4 3 3 3 3 3 3 4 5 5 6 8 10 10 11 12 12 12 14 14 15 15 14 14 14 14 13 13 12
Wind_Direction
295 266 245 236 237 233 241 238 247 257 256 263 286 281 284 276 277 118 156 131 115 135 147 158 161 162 161 159 156 153 151 149 147 146 142 139 137 134 130 128 125 123 120 116 112 109 106 102 100
286 265 238 228 231 235 242 233 243 252 266 289 302 290 279 277 313 106 131 114 124 135 146 159 161 163 162 161 158 155 153 151 149 147 145 142 140 137 134 132 130 126 122 119 115 112 108 105 103
269 251 232 226 229 233 241 238 241 247 254 268 267 266 266 269 307 115 117 121 124 132 146 158 161 163 164 163 160 157 155 153 151 150 148 146 143 141 138 135 132 129 125 122 118 115 112 109 106
265 225 238 237 239 238 249 267 277 274 262 253 265 262 252 272 353 74 108 120 126 135 144 155 162 165 165 165 162 160 158 157 155 153 150 148 146 144 140 137 135 131 128 124 122 120 117 114 111
246 233 231 237 244 248 253 263 278 276 265 255 252 257 265 293 79 101 121 128 136 142 146 156 163 167 167 167 165 163 160 158 157 154 152 150 148 145 141 139 136 134 131 127 125 124 120 118 115
242 229 234 240 245 249 254 260 267 272 270 262 248 257 261 258 168 113 123 137 146 144 147 155 164 167 168 168 167 164 162 160 158 155 154 152 149 147 144 142 140 138 135 131 129 128 125 122 119
245 247 243 250 257 257 259 271 271 275 276 275 275 261 257 253 105 92 123 146 145 146 151 157 165 167 171 170 168 165 163 161 159 157 156 152 150 150 148 146 144 143 139 135 134 132 130 126 123
258 261 252 250 255 258 270 279 274 286 284 285 276 256 256 279 347 61 145 161 150 156 160 163 167 166 167 169 169 165 163 162 161 158 154 150 149 149 148 145 146 145 143 140 138 136 135 132 130
257 244 246 248 259 271 288 290 288 294 277 276 274 280 283 307 313 208 198 194 173 172 171 170 173 170 166 168 169 165 162 162 160 156 150 147 148 147 146 144 147 147 146 144 142 141 139 137 139
224 241 248 262 273 282 286 284 287 283 274 272 273 282 295 262 253 223 209 205 193 187 185 181 176 173 168 169 164 166 165 160 159 156 155 155 153 152 149 145 147 148 148 148 148 148 147 145 153
243 249 264 273 280 284 284 283 281 277 269 265 268 268 273 259 244 235 218 213 200 192 194 188 184 175 169 166 166 167 164 165 165 164 165 159 151 145 139 144 145 147 148 150 153 156 168 172 168
266 264 267 272 281 280 277 277 275 268 268 271 270 266 255 247 237 234 226 218 210 197 197 192 187 180 171 167 171 170 172 172 168 168 167 159 150 147 149 152 157 159 161 158 163 178 181 173 167
267 267 269 272 277 276 274 269 274 268 270 274 269 266 253 243 238 235 230 222 213 206 199 197 187 184 175 170 172 174 176 173 168 167 168 160 153 154 153 158 160 164 162 162 171 178 172 174 174
276 282 280 277 272 268 267 269 266 263 268 271 267 262 254 246 240 235 230 226 215 207 198 195 187 184 179 175 173 172 172 172 167 165 165 159 155 155 154 156 158 161 161 166 172 174 168 167 162
284 280 275 265 259 257 265 264 253 263 274 270 263 260 259 252 244 233 225 222 215 210 199 197 190 184 182 179 177 171 166 169 171 167 164 161 157 157 155 155 157 160 163 167 174 174 162 157 154
269 264 263 266 259 259 254 261 263 270 272 270 264 259 257 256 245 235 226 223 212 207 204 200 196 187 184 183 178 171 167 166 171 168 165 162 160 158 156 156 161 162 163 164 167 162 156 153 156
241 262 273 284 268 270 258 270 275 269 264 265 260 254 253 257 247 237 221 217 211 204 199 199 193 190 185 181 178 171 167 164 167 167 164 165 164 162 159 159 163 162 157 160 167 159 155 154 163
289 285 281 282 284 277 269 274 280 271 262 264 264 261 251 254 246 238 218 207 209 203 195 196 195 193 179 176 173 167 167 166 166 171 167 165 166 164 161 160 164 160 158 164 164 161 162 159 165
289 281 282 284 284 279 275 277 277 271 265 261 258 261 257 259 247 232 217 201 203 199 193 197 196 191 179 178 176 173 175 169 170 175 169 167 166 166 162 163 167 163 165 170 168 162 165 166 152
283 281 283 291 294 291 277 276 273 259 250 249 252 254 255 262 257 225 212 200 201 200 197 199 195 190 185 185 181 174 168 172 171 172 175 171 168 167 166 165 168 168 167 171 176 164 163 170 157
282 279 287 294 303 278 275 273 261 255 251 243 247 248 255 261 258 239 211 201 199 205 201 203 196 191 188 181 174 166 167 169 173 177 182 176 170 169 167 169 169 172 170 175 181 172 167 172 176
286 289 297 297 299 284 271 289 275 259 253 238 248 258 267 271 259 261 238 209 204 204 208 203 197 197 190 181 179 178 183 187 184 176 179 179 175 172 172 172 174 175 175 176 181 176 168 165 176
281 303 297 286 281 279 263 262 271 249 257 259 281 286 275 264 243 245 251 232 221 198 194 208 202 199 189 186 186 185 191 190 177 173 178 184 181 180 176 177 177 178 180 180 181 176 173 175 177
295 308 291 270 261 258 244 243 273 245 247 290 296 324 312 273 242 236 262 260 248 202 192 205 205 200 196 193 191 192 193 190 181 178 184 185 182 183 181 181 180 181 182 184 184 181 179 182 184
303 324 315 294 235 246 275 267 264 258 85 39 8 352 335 337 314 233 257 243 258 231 209 209 211 208 201 201 200 199 198 194 190 183 186 185 182 183 186 184 183 184 185 184 182 183 184 184 187
269 255 265 290 275 291 285 249 257 128 84 48 37 27 17 3 359 353 285 256 235 245 243 230 220 217 209 205 209 205 199 197 194 189 187 190 186 184 183 185 184 185 185 187 185 187 188 187 191
271 252 268 278 278 271 247 240 242 84 47 32 22 27 13 354 355 350 342 316 258 232 238 247 236 227 218 210 214 209 202 199 196 191 191 192 185 182 180 185 189 188 187 187 187 194 190 188 193
241 274 299 270 281 271 262 259 270 38 13 10 14 8 2 357 358 352 339 323 317 275 257 257 247 240 230 218 215 219 208 203 197 193 196 195 188 181 180 185 190 189 189 189 189 191 190 189 193
231 240 244 258 257 271 280 274 334 28 29 21 19 1 356 359 359 356 347 334 330 334 303 266 249 252 245 237 227 222 219 208 200 197 199 196 190 184 183 186 188 190 191 190 192 194 190 193 195
242 242 234 249 266 259 270 273 316 23 26 7 357 352 353 350 346 346 346 344 341 343 326 306 289 268 260 252 247 226 226 211 203 203 200 196 193 189 185 184 187 190 192 191 192 195 195 196 197
Height
1491 1493 1496 1498 1499 1494 1483 1471 1463 1461 1459 1459 1459 1460 1461 1462 1465 1472 1470 1468 1468 1468 1470 1473 1477 1480 1483 1486 1489 1492 1495 1498 1501 1503 1506 1508 1510 1512 1513 1515 1517 1518 1520 1521 1522 1523 1524 1525 1525
1490 1493 1496 1495 1493 1489 1475 1465 1463 1459 1458 1458 1459 1460 1461 1462 1463 1465 1466 1467 1467 1468 1470 1473 1476 1480 1483 1486 1489 1492 1495 1498 1500 1503 1505 1507 1509 1511 1513 1515 1517 1519 1520 1521 1522 1523 1524 1525 1526
1489 1491 1493 1489 1482 1475 1465 1456 1455 1455 1457 1458 1459 1460 1461 1462 1464 1465 1465 1466 1467 1468 1471 1473 1476 1479 1483 1486 1489 1492 1495 1497 1500 1502 1505 1507 1509 1511 1513 1515 1517 1518 1520 1521 1523 1524 1525 1526 1527
1489 1491 1489 1483 1471 1460 1459 1456 1454 1454 1456 1457 1458 1459 1460 1463 1463 1464 1464 1465 1467 1468 1471 1473 1476 1479 1482 1485 1488 1491 1494 1497 1499 1502 1504 1507 1509 1511 1513 1515 1516 1518 1520 1521 1523 1524 1525 1526 1527
1487 1486 1483 1475 1464 1458 1455 1455 1455 1454 1454 1456 1457 1458 1459 1461 1461 1462 1463 1464 1466 1468 1470 1472 1475 1478 1481 1484 1487 1490 1493 1496 1499 1501 1503 1506 1508 1510 1512 1514 1516 1518 1520 1521 1523 1524 1525 1527 1528
1485 1481 1477 1467 1457 1454 1454 1455 1455 1454 1454 1454 1456 1456 1458 1460 1460 1461 1462 1464 1465 1466 1468 1471 1474 1477 1480 1483 1486 1489 1492 1495 1498 1500 1503 1505 1507 1510 1512 1514 1516 1518 1519 1521 1523 1524 1526 1527 1528
1482 1478 1470 1462 1457 1455 1454 1455 1454 1454 1453 1454 1455 1455 1456 1458 1458 1458 1460 1462 1464 1465 1467 1469 1473 1475 1478 1481 1484 1487 1490 1494 1496 1499 1501 1504 1506 1509 1511 1513 1515 1517 1519 1521 1523 1524 1526 1527 1528
1479 1477 1467 1461 1457 1453 1454 1454 1454 1454 1453 1454 1454 1453 1454 1455 1455 1456 1458 1460 1462 1463 1465 1468 1470 1473 1476 1479 1482 1486 1489 1492 1495 1497 1500 1503 1506 1508 1510 1512 1514 1516 1518 1520 1522 1524 1526 1527 1529
1477 1476 1464 1458 1457 1454 1454 1454 1453 1453 1453 1452 1452 1452 1452 1452 1453 1454 1455 1457 1459 1461 1463 1465 1468 1471 1473 1476 1479 1483 1487 1490 1493 1496 1499 1501 1504 1506 1509 1511 1513 1516 1518 1520 1522 1523 1525 1527 1528
1473 1469 1459 1457 1457 1455 1454 1453 1453 1452 1450 1449 1449 1449 1449 1449 1450 1451 1452 1454 1456 1458 1460 1463 1465 1467 1470 1473 1476 1479 1483 1487 1490 1493 1496 1499 1502 1505 1507 1510 1512 1515 1517 1519 1521 1523 1525 1527 1528
1467 1462 1458 1457 1456 1455 1453 1452 1452 1451 1447 1446 1446 1446 1446 1446 1447 1449 1449 1451 1452 1454 1457 1459 1462 1465 1467 1470 1473 1476 1479 1483 1487 1490 1494 1497 1500 1503 1505 1508 1511 1513 1516 1518 1520 1522 1524 1526 1528
1464 1460 1458 1456 1455 1454 1452 1450 1448 1446 1444 1444 1444 1443 1443 1443 1444 1445 1446 1448 1449 1451 1453 1456 1459 1461 1464 1466 1469 1472 1476 1479 1483 1487 1491 1494 1497 1500 1503 1506 1509 1511 1514 1516 1519 1521 1523 1525 1527
1461 1457 1455 1453 1452 1450 1449 1446 1444 1440 1440 1440 1438 1438 1438 1439 1440 1441 1443 1444 1445 1447 1449 1451 1455 1457 1460 1463 1465 1469 1472 1476 1480 1484 1488 1491 1494 1497 1501 1504 1507 1510 1512 1515 1517 1520 1522 1525 1526
1459 1455 1452 1449 1447 1445 1444 1441 1441 1434 1436 1434 1433 1432 1434 1434 1435 1436 1438 1439 1441 1442 1444 1447 1450 1453 1456 1459 1462 1465 1469 1472 1476 1480 1484 1488 1491 1494 1498 1502 1505 1508 1511 1513 1516 1519 1521 1523 1525
1458 1454 1448 1443 1441 1439 1440 1436 1433 1431 1432 1430 1428 1428 1428 1429 1430 1430 1432 1434 1436 1437 1440 1443 1445 1448 1451 1454 1458 1461 1464 1468 1472 1476 1480 1484 1488 1492 1495 1499 1502 1506 1509 1512 1515 1517 1520 1522 1524
1454 1450 1445 1436 1434 1434 1439 1432 1427 1427 1427 1424 1424 1424 1424 1424 1424 1425 1427 1429 1431 1433 1435 1438 1441 1444 1446 1450 1454 1457 1460 1464 1467 1471 1476 1480 1484 1488 1492 1496 1500 1503 1506 1509 1512 1515 1517 1520 1521
1449 1446 1440 1434 1430 1430 1432 1426 1422 1422 1421 1419 1418 1418 1419 1419 1419 1420 1421 1424 1426 1428 1430 1433 1436 1439 1442 1445 1449 1453 1457 1460 1464 1467 1471 1476 1480 1485 1489 1493 1496 1500 1503 1507 1510 1513 1515 1517 1519
1447 1443 1437 1434 1428 1427 1427 1422 1417 1416 1416 1414 1414 1413 1414 1413 1413 1415 1416 1418 1421 1423 1426 1428 1431 1434 1437 1441 1445 1448 1452 1456 1460 1463 1467 1471 1476 1481 1485 1489 1493 1497 1500 1503 1507 1510 1513 1515 1517
1445 1442 1437 1431 1426 1425 1422 1418 1412 1411 1411 1410 1409 1409 1409 1408 1408 1410 1412 1413 1416 1418 1420 1422 1425 1429 1432 1436 1439 1443 1446 1451 1456 1460 1463 1467 1472 1477 1481 1485 1489 1493 1496 1500 1503 1506 1510 1512 1514
1443 1440 1434 1427 1424 1423 1419 1413 1407 1405 1405 1405 1404 1404 1404 1405 1404 1405 1406 1408 1410 1413 1415 1417 1420 1424 1427 1431 1434 1438 1443 1447 1451 1456 1460 1463 1467 1472 1476 1481 1485 1489 1493 1496 1500 1503 1506 1509 1511
1439 1438 1432 1429 1423 1420 1418 1410 1402 1399 1398 1398 1399 1399 1400 1400 1400 1401 1402 1404 1405 1408 1411 1413 1415 1419 1422 1426 1430 1434 1439 1443 1446 1450 1454 1458 1462 1467 1472 1476 1480 1485 1488 1492 1495 1499 1501 1504 1507
1438 1432 1430 1427 1429 1424 1418 1417 1401 1395 1394 1393 1395 1396 1397 1397 1397 1397 1399 1399 1401 1404 1407 1409 1411 1414 1417 1421 1425 1428 1432 1435 1439 1444 1449 1454 1458 1462 1468 1472 1476 1480 1484 1488 1491 1495 1497 1500 1502
1435 1431 1430 1427 1426 1424 1415 1417 1402 1393 1393 1392 1393 1394 1395 1395 1395 1395 1396 1397 1398 1400 1402 1405 1407 1409 1412 1416 1419 1423 1427 1431 1435 1440 1445 1449 1454 1458 1462 1467 1471 1475 1479 1483 1487 1490 1493 1496 1498
1433 1432 1427 1423 1423 1426 1411 1411 1403 1395 1393 1393 1392 1392 1392 1392 1393 1393 1394 1395 1396 1397 1399 1401 1403 1405 1408 1411 1414 1418 1422 1425 1429 1434 1439 1444 1448 1453 1457 1462 1466 1470 1474 1478 1482 1485 1489 1491 1494
1435 1439 1438 1432 1428 1420 1401 1402 1400 1391 1390 1391 1391 1391 1391 1391 1391 1391 1391 1392 1393 1394 1395 1397 1399 1401 1403 1406 1409 1412 1416 1420 1424 1428 1433 1438 1442 1446 1451 1456 1461 1465 1469 1473 1477 1481 1484 1487 1490
1436 1438 1443 1440 1429 1415 1404 1404 1397 1389 1389 1390 1390 1391 1390 1390 1390 1390 1390 1390 1391 1391 1392 1393 1395 1397 1399 1401 1404 1408 1411 1414 1418 1423 1427 1433 1436 1441 1446 1451 1455 1460 1464 1468 1472 1476 1479 1482 1485
1435 1434 1431 1434 1427 1424 1410 1398 1392 1387 1388 1389 1390 1390 1390 1390 1390 1389 1389 1389 1389 1389 1389 1390 1391 1393 1395 1397 1400 1403 1406 1409 1413 1418 1423 1428 1431 1436 1441 1446 1450 1455 1459 1463 1466 1470 1474 1477 1480
1432 1432 1434 1435 1434 1425 1408 1399 1396 1392 1391 1390 1390 1391 1391 1390 1390 1389 1388 1388 1388 1388 1388 1388 1388 1390 1391 1393 1396 1398 1401 1405 1409 1413 1418 1423 1426 1430 1435 1440 1445 1449 1453 1457 1461 1464 1468 1471 1474
1431 1432 1432 1431 1427 1427 1417 1407 1391 1391 1391 1391 1391 1391 1391 1390 1389 1389 1388 1387 1387 1386 1385 1386 1386 1387 1388 1389 1391 1393 1396 1400 1404 1408 1413 1418 1421 1425 1430 1434 1439 1443 1447 1451 1455 1458 1462 1465 1468
1426 1427 1429 1435 1430 1421 1419 1410 1392 1392 1392 1392 1392 1392 1391 1390 1389 1388 1387 1386 1385 1385 1384 1383 1383 1384 1384 1385 1387 1389 1392 1395 1399 1403 1408 1412 1416 1420 1424 1429 1433 1437 1441 1445 1448 1452 1456 1459 1462